Date String (YYYY-MM-DD hh:mm:ss) UTC,Instrument flags,Ambient pressure (hPa),Sample flow (lpm),Bypass flow (lpm),Sample temperature (°C),Ambient temperature (°C),ASC tube jacket temperature (°C),LED temperature (°C),Box temperature (°C),Sample RH (%),Span deviation,Mass concentration (μg/m³),Mass concentration (μg/m³),Mass concentration (μg/m³)
DateTimeUTC,F1_M11,P_M11,Q1_M11,Q2_M11,T1_M11,T2_M11,T3_M11,T4_M11,T5_M11,U1_M11,ZSPAN_M11,X0_M11,X2_M11,X1_M11
2021-10-17 12:00:00,,0831.2,5.01,0.00,27.2,26.2,00.0,36.3,28.9,10.5,0000.0,0008.76,0003.55,0003.09
2021-10-17 12:01:00,,0831.1,5.00,0.00,27.2,26.2,00.0,36.3,29.0,10.5,0000.0,0008.45,0003.56,0003.11
2021-10-17 12:02:00,,0831.1,5.01,0.00,27.2,26.2,00.0,36.3,29.0,10.5,0000.0,0008.22,0003.57,0003.12
2021-10-17 12:03:00,,0831.1,5.00,0.00,27.2,26.2,00.0,36.3,29.0,10.5,0000.0,0008.21,0003.60,0003.15
2021-10-17 12:04:00,,0831.1,5.00,0.00,27.2,26.3,00.0,36.3,29.0,10.5,0000.0,0008.68,0003.62,0003.17
2021-10-17 12:05:00,,0831.1,5.00,0.00,27.2,26.3,00.0,36.3,29.0,10.5,0000.0,0008.63,0003.66,0003.21
2021-10-17 12:06:00,,0831.1,5.00,0.00,27.2,26.3,00.0,36.3,29.0,10.6,0000.0,0008.21,0003.71,0003.24
2021-10-17 12:07:00,,0831.0,5.00,0.00,27.2,26.3,00.0,36.3,29.0,10.6,0000.0,0007.63,0003.77,0003.27
2021-10-17 12:08:00,,0831.0,5.00,0.00,27.2,26.3,00.0,36.3,29.0,10.6,0000.0,0007.90,0003.80,0003.28
2021-10-17 12:09:00,,0831.0,5.00,0.00,27.2,26.3,00.0,36.3,29.0,10.6,0000.0,0007.92,0003.81,0003.30
2021-10-17 12:10:00,,0831.0,5.02,0.00,27.2,26.3,00.0,36.3,29.0,10.6,0000.0,0007.91,0003.82,0003.32
2021-10-17 12:11:00,,0831.0,5.00,0.00,27.2,26.3,00.0,36.3,29.0,10.6,0000.0,0008.27,0003.88,0003.33
2021-10-17 12:12:00,,0831.0,5.01,0.00,27.2,26.3,00.0,36.3,29.0,10.6,0000.0,0008.21,0003.88,0003.34
2021-10-17 12:13:00,,0831.0,4.99,0.00,27.2,26.3,00.0,36.3,29.0,10.6,0000.0,0008.14,0003.89,0003.36
2021-10-17 12:14:00,,0831.0,5.00,0.00,27.2,26.3,00.0,36.3,29.0,10.4,0000.0,0008.12,0003.90,0003.37
2021-10-17 12:15:00,,0831.1,5.01,0.00,27.2,26.3,00.0,36.3,29.0,10.4,0000.0,0007.64,0003.90,0003.36
2021-10-17 12:16:00,,0831.0,5.00,0.00,27.2,26.3,00.0,36.3,29.0,10.4,0000.0,0008.20,0003.91,0003.36
2021-10-17 12:17:00,,0831.0,5.00,0.00,27.2,26.2,00.0,36.3,29.0,10.3,0000.0,0009.10,0003.89,0003.35
2021-10-17 12:18:00,,0831.1,5.00,0.00,27.2,26.2,00.0,36.3,29.0,10.4,0000.0,0009.04,0003.87,0003.34
2021-10-17 12:19:00,,0831.0,5.00,0.00,27.2,26.2,00.0,36.3,29.0,10.4,0000.0,0008.92,0003.87,0003.33
2021-10-17 12:20:00,,0831.0,5.01,0.00,27.2,26.2,00.0,36.3,29.0,10.4,0000.0,0009.12,0003.88,0003.33
2021-10-17 12:21:00,,0831.0,4.99,0.00,27.2,26.2,00.0,36.3,29.0,10.5,0000.0,0009.18,0003.89,0003.32
2021-10-17 12:22:00,,0831.1,4.99,0.00,27.2,26.2,00.0,36.3,29.0,10.5,0000.0,0009.05,0003.89,0003.32
2021-10-17 12:23:00,,0831.0,5.00,0.00,27.2,26.2,00.0,36.3,29.0,10.5,0000.0,0009.46,0003.92,0003.33
2021-10-17 12:24:00,,0831.0,5.00,0.00,27.2,26.2,00.0,36.3,29.0,10.5,0000.0,0010.18,0003.96,0003.34
2021-10-17 12:25:00,,0831.0,5.00,0.00,27.2,26.2,00.0,36.3,29.0,10.5,0000.0,0010.52,0003.99,0003.33
2021-10-17 12:26:00,,0831.0,5.00,0.00,27.2,26.2,00.0,36.3,28.9,10.5,0000.0,0010.84,0004.03,0003.35
2021-10-17 12:27:00,,0831.0,5.01,0.00,27.2,26.2,00.0,36.3,28.9,10.5,0000.0,0010.77,0003.99,0003.36
2021-10-17 12:28:00,,0831.0,5.00,0.00,27.2,26.2,00.0,36.3,28.9,10.5,0000.0,0009.36,0004.00,0003.37
2021-10-17 12:29:00,,0831.0,4.99,0.00,27.2,26.2,00.0,36.3,28.9,10.3,0000.0,0009.29,0003.98,0003.37
2021-10-17 12:30:00,,0831.0,5.00,0.00,27.1,26.2,00.0,36.3,28.9,10.1,0000.0,0009.45,0003.96,0003.35
2021-10-17 12:31:00,,0831.0,5.00,0.00,27.1,26.1,00.0,36.3,28.9,10.2,0000.0,0010.03,0003.98,0003.34
2021-10-17 12:32:00,,0830.9,5.01,0.00,27.1,26.1,00.0,36.3,28.9,10.3,0000.0,0009.93,0003.96,0003.33
2021-10-17 12:33:00,,0830.9,4.99,0.00,27.1,26.1,00.0,36.3,28.9,10.1,0000.0,0009.82,0003.91,0003.31
2021-10-17 12:34:00,,0830.9,5.00,0.00,27.1,26.1,00.0,36.3,28.9,09.6,0000.0,0009.51,0003.84,0003.25
2021-10-17 12:35:00,,0830.9,5.01,0.00,27.1,26.1,00.0,36.3,28.9,09.9,0000.0,0008.84,0003.76,0003.18
2021-10-17 12:36:00,,0831.0,5.00,0.00,27.1,26.1,00.0,36.2,28.9,10.1,0000.0,0008.46,0003.70,0003.13
2021-10-17 12:37:00,,0830.9,5.00,0.00,27.1,26.1,00.0,36.2,28.8,09.8,0000.0,0008.26,0003.61,0003.05
2021-10-17 12:38:00,,0830.9,5.00,0.00,27.1,26.0,00.0,36.2,28.9,09.6,0000.0,0008.43,0003.55,0002.92
2021-10-17 12:39:00,,0830.9,5.00,0.00,27.1,26.0,00.0,36.2,28.8,09.6,0000.0,0008.62,0003.51,0002.80
2021-10-17 12:40:00,,0830.9,5.01,0.00,27.1,26.0,00.0,36.2,28.8,09.6,0000.0,0008.58,0003.46,0002.71
2021-10-17 12:41:00,,0830.9,5.00,0.00,27.1,26.0,00.0,36.2,28.8,09.5,0000.0,0009.09,0003.44,0002.63
2021-10-17 12:42:00,,0830.9,4.99,0.00,27.1,26.0,00.0,36.2,28.8,09.4,0000.0,0008.14,0003.32,0002.53
2021-10-17 12:43:00,,0830.9,5.00,0.00,27.0,26.0,00.0,36.2,28.8,09.4,0000.0,0008.01,0003.26,0002.44
2021-10-17 12:44:00,,0830.9,5.00,0.00,27.1,26.0,00.0,36.2,28.8,09.3,0000.0,0007.83,0003.16,0002.32
2021-10-17 12:45:00,,0830.9,5.00,0.00,27.0,26.0,00.0,36.2,28.8,09.1,0000.0,0007.68,0003.09,0002.25
2021-10-17 12:46:00,,0830.9,5.00,0.00,27.0,26.0,00.0,36.2,28.8,09.0,0000.0,0007.69,0003.01,0002.18
2021-10-17 12:47:00,,0830.9,5.00,0.00,27.0,26.0,00.0,36.2,28.8,09.1,0000.0,0007.44,0002.88,0002.06
2021-10-17 12:48:00,,0830.9,5.00,0.00,27.0,26.0,00.0,36.2,28.8,09.1,0000.0,0007.12,0002.74,0001.95
2021-10-17 12:49:00,,0830.9,5.00,0.00,27.0,26.0,00.0,36.2,28.8,09.2,0000.0,0006.91,0002.65,0001.88
2021-10-17 12:50:00,,0830.9,5.00,0.00,27.0,26.0,00.0,36.2,28.7,09.1,0000.0,0006.29,0002.55,0001.79
2021-10-17 12:51:00,,0830.9,5.00,0.00,27.0,26.0,00.0,36.2,28.7,09.2,0000.0,0006.11,0002.40,0001.70
2021-10-17 12:52:00,,0830.9,5.00,0.00,27.0,26.0,00.0,36.2,28.8,09.3,0000.0,0005.45,0002.35,0001.67
2021-10-17 12:53:00,,0830.9,4.99,0.00,27.0,26.0,00.0,36.2,28.8,09.4,0000.0,0004.92,0002.37,0001.67
2021-10-17 12:54:00,,0830.9,5.00,0.00,27.0,26.0,00.0,36.2,28.8,09.4,0000.0,0005.22,0002.36,0001.65
2021-10-17 12:55:00,,0830.9,5.00,0.00,27.0,26.0,00.0,36.2,28.8,09.5,0000.0,0005.53,0002.45,0001.69
2021-10-17 12:56:00,,0830.9,4.99,0.00,27.0,26.0,00.0,36.1,28.7,09.4,0000.0,0006.40,0002.50,0001.70
2021-10-17 12:57:00,,0830.9,4.99,0.00,27.0,26.0,00.0,36.1,28.7,09.3,0000.0,0006.26,0002.54,0001.74
2021-10-17 12:58:00,,0830.9,5.01,0.00,27.0,26.0,00.0,36.1,28.7,09.6,0000.0,0006.14,0002.54,0001.78
2021-10-17 12:59:00,,0830.9,5.00,0.00,27.0,25.9,00.0,36.1,28.7,09.7,0000.0,0007.62,0002.61,0001.83
